• In Russia
  • List of Countries
  • For 7 days
  • Water Temperature
  • Satellite Maps
  • Weather Map
  • Weather Widgets
  • user-avatar
    Login

    Hourly Weather Nowy Szelkow

    Today, 27 May, Monday

    Time Temperature Precipitation Wind Pressure Humidity
    00:00 +13°C° 0 mm 3 mps 748 mmHg 85%
    01:00 +13°C° 0 mm 3 mps 748 mmHg 83%
    02:00 +13°C° 0 mm 3 mps 748 mmHg 85%
    03:00 +13°C° 0 mm 3 mps 748 mmHg 87%
    04:00 +12°C° 0 mm 3 mps 748 mmHg 88%
    05:00 +14°C° 0 mm 4 mps 748 mmHg 84%
    06:00 +17°C° 0 mm 4 mps 747 mmHg 79%
    07:00 +19°C° 0 mm 5 mps 747 mmHg 74%
    08:00 +20°C° 0 mm 5 mps 747 mmHg 68%
    09:00 +22°C° 0 mm 6 mps 747 mmHg 62%
    10:00 +23°C° 0 mm 6 mps 747 mmHg 56%
    11:00 +24°C° 0 mm 6 mps 747 mmHg 54%
    12:00 +24°C° 0 mm 6 mps 747 mmHg 53%
    13:00 +26°C° 0 mm 6 mps 747 mmHg 52%
    14:00 +26°C° 0 mm 6 mps 747 mmHg 54%
    15:00 +25°C° 0 mm 5 mps 746 mmHg 56%
    16:00 +25°C° 0 mm 5 mps 746 mmHg 58%
    17:00 +23°C° 0 mm 4 mps 746 mmHg 63%
    18:00 +22°C° 0 mm 3 mps 746 mmHg 68%
    19:00 +21°C° 0 mm 1 mps 746 mmHg 73%
    20:00 +19°C° 0 mm 2 mps 746 mmHg 76%
    21:00 +18°C° 0 mm 2 mps 746 mmHg 79%
    22:00 +17°C° 0 mm 2 mps 746 mmHg 82%
    23:00 +17°C° 0.5 mm 2 mps 746 mmHg 85%

    Tomorrow, 28 May, Tuesday

    Time Temperature Precipitation Wind Pressure Humidity
    00:00 +17°C° 0.5 mm 2 mps 746 mmHg 89%
    01:00 +17°C° 0.5 mm 2 mps 745 mmHg 93%
    02:00 +17°C° 0.9 mm 2 mps 745 mmHg 94%
    03:00 +17°C° 0.9 mm 2 mps 744 mmHg 95%
    04:00 +17°C° 0.9 mm 2 mps 744 mmHg 96%
    05:00 +17°C° 0.8 mm 3 mps 744 mmHg 96%
    06:00 +18°C° 0.8 mm 4 mps 743 mmHg 95%
    07:00 +18°C° 0.8 mm 4 mps 743 mmHg 94%
    08:00 +19°C° 0 mm 5 mps 743 mmHg 86%
    09:00 +20°C° 0 mm 6 mps 743 mmHg 78%
    10:00 +21°C° 0 mm 7 mps 743 mmHg 70%
    11:00 +22°C° 0 mm 7 mps 743 mmHg 68%
    12:00 +22°C° 0 mm 6 mps 743 mmHg 67%
    13:00 +23°C° 0 mm 6 mps 743 mmHg 65%
    14:00 +23°C° 0.4 mm 5 mps 743 mmHg 68%
    15:00 +22°C° 0.4 mm 4 mps 744 mmHg 71%
    16:00 +22°C° 0.4 mm 4 mps 744 mmHg 74%
    17:00 +21°C° 1.7 mm 3 mps 744 mmHg 80%
    18:00 +19°C° 1.7 mm 3 mps 744 mmHg 87%
    19:00 +17°C° 1.7 mm 3 mps 744 mmHg 93%
    20:00 +15°C° 0.1 mm 4 mps 745 mmHg 94%
    21:00 +14°C° 0.1 mm 4 mps 745 mmHg 95%
    22:00 +12°C° 0.1 mm 4 mps 745 mmHg 96%
    23:00 +12°C° 0.3 mm 5 mps 745 mmHg 96%

    Day after tomorrow, 29 May, Wednesday

    Time Temperature Precipitation Wind Pressure Humidity
    00:00 +10°C° 0.3 mm 5 mps 746 mmHg 95%
    01:00 +10°C° 0.3 mm 5 mps 746 mmHg 95%
    02:00 +9°C° 0.9 mm 5 mps 746 mmHg 94%
    03:00 +9°C° 0.9 mm 6 mps 747 mmHg 94%
    04:00 +9°C° 0.9 mm 6 mps 747 mmHg 94%
    05:00 +9°C° 1 mm 6 mps 748 mmHg 93%
    06:00 +9°C° 1 mm 6 mps 748 mmHg 92%
    07:00 +9°C° 1 mm 5 mps 749 mmHg 92%
    08:00 +9°C° 0.1 mm 5 mps 750 mmHg 90%
    09:00 +9°C° 0.1 mm 5 mps 750 mmHg 88%
    10:00 +10°C° 0.1 mm 5 mps 751 mmHg 86%
    11:00 +12°C° 0 mm 5 mps 752 mmHg 80%
    12:00 +14°C° 0 mm 4 mps 752 mmHg 73%
    13:00 +17°C° 0 mm 4 mps 752 mmHg 66%
    14:00 +16°C° 0 mm 5 mps 753 mmHg 64%
    15:00 +16°C° 0 mm 5 mps 753 mmHg 63%
    16:00 +16°C° 0 mm 5 mps 753 mmHg 61%
    17:00 +15°C° 0 mm 5 mps 753 mmHg 65%
    18:00 +13°C° 0 mm 4 mps 754 mmHg 70%
    19:00 +12°C° 0 mm 4 mps 754 mmHg 74%
    20:00 +10°C° 0 mm 4 mps 754 mmHg 76%
    21:00 +8°C° 0 mm 4 mps 755 mmHg 78%
    22:00 +6°C° 0 mm 4 mps 755 mmHg 80%
    23:00 +6°C° 0 mm 4 mps 755 mmHg 81%

    30 May, Thursday

    Time Temperature Precipitation Wind Pressure Humidity
    00:00 +5°C° 0 mm 4 mps 755 mmHg 81%
    01:00 +4°C° 0 mm 4 mps 756 mmHg 82%
    02:00 +4°C° 0 mm 4 mps 756 mmHg 82%
    03:00 +3°C° 0 mm 3 mps 756 mmHg 81%
    04:00 +3°C° 0 mm 3 mps 756 mmHg 81%
    05:00 +5°C° 0 mm 3 mps 756 mmHg 78%
    06:00 +8°C° 0 mm 3 mps 756 mmHg 75%
    07:00 +10°C° 0 mm 3 mps 756 mmHg 72%
    08:00 +12°C° 0 mm 3 mps 756 mmHg 67%
    09:00 +14°C° 0 mm 3 mps 756 mmHg 63%
    10:00 +16°C° 0 mm 3 mps 756 mmHg 59%
    11:00 +17°C° 0 mm 3 mps 755 mmHg 55%
    12:00 +18°C° 0 mm 3 mps 755 mmHg 51%
    13:00 +19°C° 0 mm 2 mps 755 mmHg 48%
    14:00 +19°C° 0 mm 3 mps 755 mmHg 48%
    15:00 +19°C° 0 mm 3 mps 755 mmHg 49%
    16:00 +19°C° 0 mm 3 mps 755 mmHg 50%
    17:00 +18°C° 0 mm 3 mps 755 mmHg 57%
    18:00 +16°C° 0 mm 3 mps 755 mmHg 64%
    19:00 +14°C° 0 mm 3 mps 756 mmHg 71%
    20:00 +14°C° 0 mm 2 mps 756 mmHg 71%
    21:00 +12°C° 0 mm 2 mps 756 mmHg 71%
    22:00 +10°C° 0 mm 2 mps 757 mmHg 71%
    23:00 +9°C° 0 mm 2 mps 757 mmHg 72%

    31 May, Friday

    Time Temperature Precipitation Wind Pressure Humidity
    00:00 +10°C° 0 mm 1 mps 757 mmHg 74%
    01:00 +9°C° 0 mm 1 mps 757 mmHg 75%
    02:00 +9°C° 0 mm 1 mps 756 mmHg 76%
    03:00 +9°C° 0 mm 1 mps 756 mmHg 76%
    04:00 +9°C° 0 mm 1 mps 756 mmHg 77%
    05:00 +11°C° 0 mm 1 mps 756 mmHg 73%
    06:00 +13°C° 0 mm 1 mps 757 mmHg 69%
    07:00 +15°C° 0 mm 1 mps 757 mmHg 65%
    08:00 +18°C° 0 mm 1 mps 757 mmHg 61%
    09:00 +19°C° 0 mm 1 mps 757 mmHg 57%
    10:00 +21°C° 0 mm 1 mps 757 mmHg 53%
    11:00 +22°C° 0 mm 1 mps 757 mmHg 51%
    12:00 +22°C° 0 mm 1 mps 756 mmHg 48%
    13:00 +23°C° 0 mm 1 mps 756 mmHg 46%
    14:00 +23°C° 0 mm 1 mps 756 mmHg 49%
    15:00 +23°C° 0 mm 1 mps 756 mmHg 51%
    16:00 +23°C° 0 mm 1 mps 756 mmHg 54%
    17:00 +20°C° 0.1 mm 2 mps 756 mmHg 64%
    18:00 +19°C° 0.1 mm 2 mps 756 mmHg 73%
    19:00 +17°C° 0.1 mm 3 mps 756 mmHg 83%
    20:00 +16°C° 0 mm 3 mps 757 mmHg 86%
    21:00 +14°C° 0 mm 3 mps 757 mmHg 90%
    22:00 +13°C° 0 mm 3 mps 757 mmHg 94%
    23:00 +12°C° 0 mm 3 mps 757 mmHg 95%

    1 June, Saturday

    Time Temperature Precipitation Wind Pressure Humidity
    00:00 +12°C° 0 mm 3 mps 757 mmHg 95%
    01:00 +12°C° 0 mm 3 mps 757 mmHg 96%
    02:00 +12°C° 0 mm 3 mps 757 mmHg 96%
    03:00 +11°C° 0 mm 3 mps 758 mmHg 96%
    04:00 +11°C° 0 mm 3 mps 758 mmHg 96%
    05:00 +12°C° 0 mm 3 mps 758 mmHg 92%
    06:00 +13°C° 0 mm 3 mps 758 mmHg 89%
    07:00 +16°C° 0 mm 3 mps 758 mmHg 85%
    08:00 +17°C° 0 mm 3 mps 758 mmHg 79%
    09:00 +19°C° 0 mm 2 mps 758 mmHg 74%
    10:00 +20°C° 0 mm 2 mps 758 mmHg 68%
    11:00 +21°C° 0.1 mm 2 mps 758 mmHg 65%
    12:00 +21°C° 0.1 mm 3 mps 758 mmHg 62%
    13:00 +22°C° 0.1 mm 3 mps 758 mmHg 60%
    14:00 +22°C° 0.1 mm 3 mps 757 mmHg 60%
    15:00 +22°C° 0.1 mm 3 mps 757 mmHg 60%
    16:00 +22°C° 0.1 mm 3 mps 757 mmHg 60%
    17:00 +21°C° 0 mm 3 mps 757 mmHg 66%
    18:00 +19°C° 0 mm 3 mps 757 mmHg 72%
    19:00 +18°C° 0 mm 3 mps 757 mmHg 79%
    20:00 +17°C° 0 mm 2 mps 757 mmHg 83%
    21:00 +15°C° 0 mm 2 mps 757 mmHg 87%
    22:00 +14°C° 0 mm 2 mps 758 mmHg 91%
    23:00 +14°C° 0 mm 2 mps 758 mmHg 92%
    Show more